IZ1KGA-1 Weather Reports


time (UTC)temp
C
wind
direction
speed
KPH
gust
KPH
rain 1hr
cm
rain 24hr
cm
rain mn
cm
humidity
%
barometer
mb
20260507235057 12 0 0.0 0.0 0.00 0.00 0.00 79 1015.2
20260507234603 12 0 0.0 0.0 0.00 0.00 0.00 79 1015.3
20260507234057 12 0 0.0 0.0 0.00 0.00 0.00 79 1015.3
20260507233558 12 0 0.0 0.0 0.00 0.00 0.00 79 1015.4
20260507233104 12 0 0.0 0.0 0.00 0.00 0.00 79 1015.4
20260507232558 13 0 0.0 0.0 0.00 0.00 0.00 79 1015.5
20260507232057 13 0 0.0 0.0 0.00 0.00 0.00 78 1015.4
20260507231600 13 0 0.0 0.0 0.00 0.00 0.00 78 1015.4
20260507231101 13 0 0.0 0.0 0.00 0.00 0.00 78 1015.5
20260507230601 13 0 0.0 0.0 0.00 0.00 0.00 78 1015.4
20260507230057 13 0 0.0 0.0 0.00 0.00 0.00 77 1015.4
20260507225557 13 0 0.0 0.0 0.00 0.00 0.00 77 1015.4
20260507225055 13 0 0.0 0.0 0.00 0.00 0.00 77 1015.3
20260507224601 13 0 0.0 0.0 0.00 0.00 0.00 77 1015.4
20260507224057 13 0 0.0 0.0 0.00 0.00 0.00 77 1015.2
20260507223557 13 0 0.0 0.0 0.00 0.00 0.00 77 1015.3
20260507223058 13 0 0.0 0.0 0.00 0.00 0.00 77 1015.4
20260507222557 13 0 0.0 0.0 0.00 0.00 0.00 77 1015.4
20260507222057 13 0 0.0 0.0 0.00 0.00 0.00 77 1015.4
20260507221556 13 0 0.0 0.0 0.00 0.00 0.00 77 1015.4
20260507221058 13 0 0.0 0.0 0.00 0.00 0.00 77 1015.4
20260507220558 13 0 0.0 0.0 0.00 0.00 0.00 77 1015.4
20260507220059 13 0 0.0 0.0 0.00 0.00 0.00 77 1015.3
20260507215556 13 0 0.0 0.0 0.00 0.00 0.00 76 1015.3
20260507215059 13 0 0.0 0.0 0.00 0.00 0.00 76 1015.2
20260507214558 13 0 0.0 0.0 0.00 0.00 0.00 76 1015.2
20260507214055 13 0 0.0 6.4 0.00 0.00 0.00 75 1015.2
20260507213601 13 0 0.0 9.7 0.00 0.00 0.00 75 1015.1
20260507213059 13 0 4.8 9.7 0.00 0.00 0.00 73 1015.1
20260507212558 13 257 0.0 6.4 0.00 0.00 0.00 75 1015.0
20260507212058 13 0 0.0 0.0 0.00 0.00 0.00 75 1015.1
20260507211558 13 0 0.0 0.0 0.00 0.00 0.00 75 1015.2
20260507211057 13 0 0.0 0.0 0.00 0.00 0.00 74 1015.3
20260507210600 13 0 0.0 0.0 0.00 0.00 0.00 76 1015.3
20260507210058 13 0 0.0 0.0 0.00 0.00 0.00 74 1015.2
20260507205556 13 0 0.0 0.0 0.00 0.00 0.00 73 1015.1
20260507205058 13 0 0.0 0.0 0.00 0.00 0.00 75 1015.1
20260507204555 13 0 0.0 0.0 0.00 0.00 0.00 75 1015.1
20260507204057 13 0 0.0 0.0 0.00 0.00 0.00 74 1014.8
20260507203558 13 0 0.0 0.0 0.00 0.00 0.00 73 1014.9
20260507203059 13 0 0.0 0.0 0.00 0.00 0.00 73 1014.7
20260507202555 13 0 0.0 0.0 0.00 0.00 0.00 73 1014.7
20260507202057 13 0 0.0 0.0 0.00 0.00 0.00 72 1014.6
20260507201556 13 0 0.0 0.0 0.00 0.00 0.00 73 1014.4
20260507201055 13 0 0.0 0.0 0.00 0.00 0.00 74 1014.4
20260507200555 13 0 0.0 0.0 0.00 0.00 0.00 72 1014.4
20260507200100 13 0 0.0 0.0 0.00 0.00 0.00 72 1014.2
20260507195558 14 0 0.0 0.0 0.00 0.00 0.00 74 1014.3
20260507195055 14 0 0.0 0.0 0.00 0.00 0.00 73 1014.3
20260507194603 14 0 0.0 0.0 0.00 0.00 0.00 74 1014.2
20260507194055 14 0 0.0 0.0 0.00 0.00 0.00 74 1014.2
20260507193555 14 0 0.0 0.0 0.00 0.00 0.00 73 1014.0
20260507193100 14 0 0.0 0.0 0.00 0.00 0.00 73 1013.9
20260507192556 14 0 0.0 0.0 0.00 0.00 0.00 73 1013.7
20260507192057 14 0 0.0 0.0 0.00 0.00 0.00 73 1013.6
20260507191602 15 0 0.0 0.0 0.00 0.00 0.00 72 1013.8
20260507191056 15 0 0.0 0.0 0.00 0.00 0.00 72 1014.0
20260507190557 15 0 0.0 0.0 0.00 0.00 0.00 72 1014.0
20260507190058 15 0 0.0 0.0 0.00 0.00 0.00 72 1013.7
20260507185558 15 0 0.0 0.0 0.00 0.00 0.00 71 1013.8
20260507185056 15 0 0.0 0.0 0.00 0.00 0.00 70 1013.6
20260507184556 15 0 0.0 0.0 0.00 0.00 0.00 70 1013.5
20260507184057 15 0 0.0 0.0 0.00 0.00 0.00 71 1013.5
20260507183558 15 0 0.0 0.0 0.00 0.00 0.00 69 1013.5
20260507183105 15 0 0.0 0.0 0.00 0.00 0.00 68 1013.4
20260507182557 15 0 0.0 9.7 0.00 0.00 0.00 70 1013.5
20260507182058 16 0 0.0 14.5 0.00 0.00 0.00 68 1013.3
20260507181556 16 0 1.6 14.5 0.00 0.00 0.00 67 1013.1
20260507181100 16 194 0.0 0.0 0.00 0.00 0.00 69 1013.1
20260507180558 16 0 0.0 0.0 0.00 0.00 0.00 69 1013.1
20260507180057 16 0 0.0 0.0 0.00 0.00 0.00 68 1013.1
20260507175554 17 0 0.0 0.0 0.00 0.00 0.00 67 1013.0
20260507175057 17 0 0.0 9.7 0.00 0.00 0.00 64 1012.9
20260507174556 17 0 0.0 16.1 0.00 0.00 0.00 64 1013.0
20260507174057 17 0 6.4 16.1 0.00 0.00 0.00 63 1012.9
20260507173556 17 201 0.0 8.0 0.00 0.00 0.00 64 1012.9
20260507173103 17 209 0.0 11.3 0.00 0.00 0.00 65 1012.8
20260507172600 17 0 1.6 11.3 0.00 0.00 0.00 64 1012.8
20260507172056 17 0 0.0 1.6 0.00 0.00 0.00 63 1012.7
20260507171557 17 0 0.0 12.9 0.00 0.00 0.00 63 1012.7
20260507171056 18 0 1.6 12.9 0.00 0.00 0.00 61 1012.7
20260507170558 18 122 1.6 16.1 0.00 0.00 0.00 61 1012.8
20260507170059 18 133 1.6 16.1 0.00 0.00 0.00 59 1012.7
20260507165558 18 117 3.2 16.1 0.00 0.00 0.00 59 1012.7
20260507165057 18 117 0.0 12.9 0.00 0.00 0.00 60 1012.7
20260507164555 18 0 3.2 12.9 0.00 0.00 0.00 59 1012.6
20260507164055 18 0 0.0 17.7 0.00 0.00 0.00 61 1012.7
20260507163556 18 0 4.8 17.7 0.00 0.00 0.00 59 1012.7
20260507163314 18 84 4.8 17.7 0.00 0.00 0.00 59 1012.7
20260507162555 18 123 0.0 16.1 0.00 0.00 0.00 61 1012.6
20260507162059 18 0 4.8 16.1 0.00 0.00 0.00 60 1012.7
20260507161559 18 114 4.8 14.5 0.00 0.00 0.00 61 1012.7
20260507161058 18 0 0.0 14.5 0.00 0.00 0.00 61 1012.5
20260507160556 18 98 3.2 11.3 0.00 0.00 0.00 60 1012.5
20260507160057 18 130 0.0 14.5 0.00 0.00 0.00 61 1012.5
20260507155556 18 0 4.8 14.5 0.00 0.00 0.00 61 1012.4
20260507155059 18 0 0.0 12.9 0.00 0.00 0.00 61 1012.3
20260507154559 18 134 1.6 12.9 0.00 0.00 0.00 61 1012.3
20260507154057 18 0 0.0 14.5 0.00 0.00 0.00 62 1012.4
20260507153556 18 111 1.6 19.3 0.00 0.00 0.00 59 1012.4
20260507153106 18 108 6.4 19.3 0.00 0.00 0.00 59 1012.4
20260507152558 19 104 6.4 20.9 0.00 0.00 0.00 58 1012.3
20260507152056 19 128 6.4 20.9 0.00 0.00 0.00 58 1012.3
20260507151558 19 112 4.8 20.9 0.00 0.00 0.00 58 1012.3
20260507151056 19 113 4.8 20.9 0.00 0.00 0.00 57 1012.2
20260507150555 18 128 4.8 16.1 0.00 0.00 0.00 60 1012.5
20260507145557 18 128 6.4 16.1 0.00 0.05 0.00 58 1012.5
20260507145058 18 166 4.8 17.7 0.00 0.05 0.00 57 1012.5
20260507144557 19 149 6.4 17.7 0.00 0.05 0.00 57 1012.5
20260507144056 19 183 6.4 20.9 0.00 0.05 0.00 56 1012.5
20260507143556 19 143 8.0 25.7 0.00 0.05 0.00 58 1012.5
20260507143106 19 360 9.7 25.7 0.00 0.05 0.00 59 1012.6
20260507142817 19 360 14.5 25.7 0.00 0.05 0.00 58 1012.7
20260507141057 19 107 8.0 22.5 0.00 0.05 0.00 59 1012.6
20260507140555 19 115 8.0 20.9 0.00 0.05 0.00 59 1012.7
20260507140106 19 76 11.3 20.9 0.00 0.05 0.00 59 1012.7
20260507135557 18 78 11.3 20.9 0.00 0.05 0.00 60 1012.8
20260507135056 18 88 8.0 20.9 0.00 0.05 0.00 60 1012.8
20260507134604 18 91 6.4 22.5 0.00 0.05 0.00 60 1012.8
20260507134056 18 121 12.9 22.5 0.00 0.05 0.00 60 1012.8
20260507133557 18 142 9.7 24.1 0.00 0.05 0.00 61 1012.9
20260507133108 18 65 11.3 24.1 0.00 0.05 0.00 61 1012.9
20260507132557 18 135 8.0 22.5 0.00 0.05 0.00 61 1013.0
20260507132055 18 109 4.8 22.5 0.00 0.05 0.00 61 1013.0
20260507131608 18 138 6.4 20.9 0.00 0.05 0.00 60 1013.0
20260507131056 18 128 4.8 20.9 0.00 0.05 0.00 60 1013.1
20260507130556 18 126 8.0 27.4 0.00 0.05 0.00 59 1013.1
20260507130107 18 136 9.7 27.4 0.00 0.05 0.00 58 1013.0
20260507125555 18 105 9.7 30.6 0.00 0.05 0.00 59 1013.1
20260507125055 19 77 17.7 30.6 0.00 0.05 0.00 58 1013.0
20260507124602 19 92 11.3 25.7 0.00 0.05 0.00 60 1013.1
20260507124055 18 138 6.4 24.1 0.00 0.05 0.00 59 1013.0
20260507123556 18 86 8.0 24.1 0.00 0.05 0.00 60 1013.2
20260507123100 18 128 11.3 24.1 0.00 0.05 0.00 58 1013.2
20260507122556 18 136 4.8 22.5 0.00 0.05 0.00 59 1013.1
20260507122057 18 97 11.3 25.7 0.00 0.05 0.00 59 1013.3
20260507121602 18 104 12.9 25.7 0.00 0.05 0.00 59 1013.4
20260507121058 18 86 14.5 25.7 0.00 0.05 0.00 59 1013.3
20260507120555 18 87 12.9 25.7 0.00 0.05 0.00 60 1013.3
20260507120057 18 105 11.3 25.7 0.00 0.05 0.00 60 1013.3
20260507115555 18 88 12.9 25.7 0.00 0.05 0.00 60 1013.4
20260507115054 18 118 12.9 25.7 0.00 0.05 0.00 60 1013.4
20260507114610 18 107 14.5 27.4 0.00 0.05 0.00 59 1013.5
20260507114054 18 146 14.5 29.0 0.00 0.05 0.00 61 1013.6
20260507113554 18 115 16.1 30.6 0.00 0.05 0.00 61 1013.6
20260507113054 18 122 11.3 30.6 0.00 0.05 0.00 61 1013.7
20260507112559 18 89 9.7 27.4 0.00 0.05 0.00 61 1013.7
20260507112056 18 123 11.3 27.4 0.00 0.05 0.00 60 1013.7
20260507111556 18 121 16.1 27.4 0.00 0.05 0.00 60 1013.8
20260507111056 18 100 11.3 24.1 0.00 0.05 0.00 61 1013.9
20260507110555 18 89 11.3 22.5 0.00 0.05 0.00 61 1013.9
20260507110101 18 117 14.5 24.1 0.00 0.05 0.00 62 1013.9
20260507105554 18 165 12.9 27.4 0.00 0.05 0.00 60 1013.8
20260507105054 18 65 14.5 27.4 0.00 0.05 0.00 59 1014.0
20260507104601 18 94 14.5 27.4 0.00 0.05 0.00 59 1014.0
20260507104055 18 360 9.7 27.4 0.00 0.05 0.00 58 1014.0
20260507103554 19 109 11.3 24.1 0.00 0.05 0.00 59 1013.9
20260507103128 19 99 9.7 27.4 0.00 0.05 0.00 59 1014.0
20260507102554 19 33 16.1 27.4 0.00 0.05 0.00 58 1014.0
20260507102054 19 104 11.3 27.4 0.00 0.05 0.00 57 1014.0
20260507101556 19 89 9.7 20.9 0.00 0.05 0.00 57 1014.1
20260507101054 18 136 4.8 20.9 0.00 0.05 0.00 56 1014.1
20260507100554 18 163 11.3 20.9 0.00 0.05 0.00 58 1014.0
20260507100107 18 0 6.4 19.3 0.00 0.05 0.00 58 1014.1
20260507095555 18 117 8.0 19.3 0.00 0.05 0.00 59 1014.0
20260507095056 18 94 8.0 19.3 0.00 0.05 0.00 60 1014.0
20260507094601 18 94 8.0 20.9 0.00 0.05 0.00 59 1014.0
20260507094054 18 155 6.4 20.9 0.00 0.05 0.00 61 1014.1
20260507093554 18 128 3.2 16.1 0.00 0.05 0.00 62 1014.1
20260507093059 18 113 6.4 19.3 0.00 0.05 0.00 59 1014.0
20260507092555 18 123 6.4 19.3 0.00 0.05 0.00 61 1014.0
20260507092054 18 94 6.4 16.1 0.00 0.05 0.00 61 1014.0
20260507091554 18 148 1.6 16.1 0.00 0.05 0.00 61 1014.1
20260507091054 18 118 1.6 14.5 0.00 0.05 0.00 62 1014.0
20260507090555 18 0 0.0 0.0 0.00 0.05 0.00 63 1014.2
20260507090100 18 0 0.0 0.0 0.00 0.05 0.00 64 1014.0
20260507085555 17 0 0.0 0.0 0.00 0.05 0.00 63 1014.0
20260507085056 17 0 0.0 0.0 0.00 0.05 0.00 64 1014.0
20260507084605 17 0 0.0 0.0 0.00 0.05 0.00 64 1014.1
20260507084057 17 0 0.0 0.0 0.00 0.05 0.00 65 1014.0
20260507083557 17 0 0.0 0.0 0.00 0.05 0.00 66 1014.0
20260507083057 17 0 0.0 0.0 0.00 0.05 0.00 65 1014.0
20260507082557 17 0 0.0 0.0 0.00 0.05 0.00 65 1014.1
20260507082102 16 0 0.0 0.0 0.00 0.05 0.00 66 1014.3
20260507081559 16 0 0.0 0.0 0.00 0.05 0.00 65 1014.3
20260507081055 16 0 0.0 0.0 0.00 0.05 0.00 65 1014.2
20260507080559 16 0 0.0 0.0 0.00 0.05 0.00 65 1014.3
20260507080100 16 0 0.0 0.0 0.00 0.05 0.00 66 1014.2
20260507075601 16 0 0.0 0.0 0.00 0.05 0.00 64 1014.3
20260507075102 16 0 0.0 0.0 0.00 0.05 0.00 64 1014.2
20260507074608 16 0 0.0 0.0 0.00 0.05 0.00 64 1014.3
20260507074056 16 0 0.0 0.0 0.00 0.05 0.00 64 1014.3
20260507073559 15 0 0.0 0.0 0.00 0.05 0.00 65 1014.3
20260507073112 15 0 0.0 0.0 0.00 0.05 0.00 63 1014.4
20260507072556 15 0 0.0 0.0 0.00 0.05 0.00 63 1014.3
20260507072056 15 0 0.0 0.0 0.00 0.05 0.00 64 1014.3
20260507071605 14 0 0.0 0.0 0.00 0.05 0.00 65 1014.3
20260507071056 14 0 0.0 0.0 0.00 0.05 0.00 65 1014.2
20260507070556 13 0 0.0 0.0 0.00 0.05 0.00 65 1014.3
20260507070106 13 0 0.0 0.0 0.00 0.05 0.00 65 1014.0
20260507065556 13 0 0.0 0.0 0.00 0.08 0.00 67 1014.1
20260507065055 12 0 0.0 0.0 0.00 0.08 0.00 71 1014.1
20260507064600 12 0 0.0 0.0 0.00 0.08 0.00 73 1014.1
20260507064059 11 0 0.0 0.0 0.00 0.08 0.00 75 1014.1
20260507063557 11 0 0.0 0.0 0.00 0.08 0.00 77 1014.0
20260507063101 10 0 0.0 0.0 0.00 0.08 0.00 80 1014.1
20260507062600 10 0 0.0 0.0 0.00 0.08 0.00 82 1014.0
20260507062056 9 0 0.0 0.0 0.00 0.08 0.00 83 1014.0
20260507061557 9 0 0.0 0.0 0.00 0.08 0.00 83 1013.9
20260507061057 8 0 0.0 0.0 0.00 0.08 0.00 84 1013.9
20260507060556 8 0 0.0 0.0 0.00 0.08 0.00 86 1013.9
20260507060103 8 0 0.0 0.0 0.00 0.08 0.00 88 1013.9
20260507055556 8 0 0.0 0.0 0.00 0.20 0.00 88 1013.9
20260507055059 7 0 0.0 0.0 0.00 0.20 0.00 89 1013.9
20260507054613 7 0 0.0 0.0 0.00 0.20 0.00 88 1013.9
20260507054056 7 0 0.0 0.0 0.00 0.20 0.00 88 1013.9
20260507053557 7 0 0.0 0.0 0.00 0.20 0.00 88 1013.8
20260507053107 7 0 0.0 0.0 0.00 0.20 0.00 89 1013.6
20260507052556 7 0 0.0 0.0 0.00 0.20 0.00 88 1013.6
20260507052059 6 0 0.0 0.0 0.00 0.20 0.00 89 1013.6
20260507051601 6 0 0.0 0.0 0.00 0.20 0.00 89 1013.5
20260507051056 6 0 0.0 0.0 0.00 0.20 0.00 89 1013.3
20260507050556 6 0 0.0 0.0 0.00 0.20 0.00 88 1013.4
20260507050100 6 0 0.0 0.0 0.00 0.20 0.00 88 1013.3
20260507045557 6 0 0.0 0.0 0.00 0.84 0.00 88 1013.3
20260507045052 6 0 0.0 0.0 0.00 0.84 0.00 88 1013.1
20260507044606 6 0 0.0 0.0 0.00 0.84 0.00 88 1013.2
20260507044056 6 0 0.0 0.0 0.00 0.84 0.00 88 1013.1
20260507043556 6 0 0.0 0.0 0.00 0.84 0.00 88 1013.0
20260507043101 6 0 0.0 0.0 0.00 0.84 0.00 88 1013.0
20260507042600 6 0 0.0 0.0 0.00 0.84 0.00 88 1012.9
20260507042057 6 0 0.0 0.0 0.00 0.84 0.00 88 1012.8
20260507041604 6 0 0.0 0.0 0.00 0.84 0.00 88 1012.7
20260507041103 6 0 0.0 0.0 0.00 0.84 0.00 88 1012.8
20260507040557 6 0 0.0 0.0 0.00 0.84 0.00 88 1012.7
20260507040057 7 0 0.0 0.0 0.00 0.84 0.00 88 1012.8
20260507035556 7 0 0.0 0.0 0.00 1.17 0.00 88 1012.8
20260507035054 7 0 0.0 0.0 0.00 1.17 0.00 88 1012.8
20260507034603 7 0 0.0 0.0 0.00 1.17 0.00 88 1012.8
20260507034056 7 0 0.0 0.0 0.00 1.17 0.00 88 1012.9
20260507033553 7 0 0.0 0.0 0.00 1.17 0.00 88 1012.8
20260507033105 7 0 0.0 0.0 0.00 1.17 0.00 88 1012.8
20260507032557 7 0 0.0 0.0 0.00 1.17 0.00 88 1012.7
20260507032101 7 0 0.0 0.0 0.00 1.17 0.00 88 1012.7
20260507031600 7 0 0.0 0.0 0.00 1.17 0.00 87 1012.7
20260507031057 7 0 0.0 0.0 0.00 1.17 0.00 87 1012.8
20260507030557 7 0 0.0 0.0 0.00 1.17 0.00 87 1012.9
20260507030105 7 0 0.0 0.0 0.00 1.17 0.00 88 1013.0
20260507025556 7 0 0.0 0.0 0.00 1.45 0.00 88 1013.0
20260507025056 7 0 0.0 0.0 0.00 1.45 0.00 88 1013.0
20260507024600 7 0 0.0 0.0 0.00 1.45 0.00 88 1012.9
20260507024056 7 0 0.0 0.0 0.00 1.45 0.00 88 1013.0
20260507023556 7 0 0.0 0.0 0.00 1.45 0.00 88 1012.9
20260507023058 7 0 0.0 0.0 0.00 1.45 0.00 87 1012.9
20260507022557 7 0 0.0 0.0 0.00 1.42 0.00 87 1012.9
20260507022055 7 0 0.0 0.0 0.00 1.42 0.00 87 1013.0
20260507021646 7 0 0.0 0.0 0.00 1.42 0.00 87 1012.8
20260507021053 7 0 0.0 0.0 0.00 1.42 0.00 87 1012.8
20260507020556 7 0 0.0 0.0 0.00 1.42 0.00 87 1012.8
20260507020135 7 0 0.0 0.0 0.00 1.42 0.00 87 1012.7
20260507015603 7 0 0.0 0.0 0.00 1.45 0.00 87 1012.7
20260507015057 7 0 0.0 0.0 0.00 1.45 0.00 87 1012.7
20260507014621 7 0 0.0 0.0 0.00 1.45 0.00 87 1012.5
20260507014057 7 0 0.0 0.0 0.00 1.45 0.00 87 1012.5
20260507013557 7 0 0.0 4.8 0.00 1.45 0.00 86 1012.5
20260507013102 7 0 0.0 4.8 0.00 1.45 0.00 86 1012.4
20260507012556 7 0 0.0 4.8 0.00 1.45 0.00 86 1012.4
20260507012057 7 0 0.0 0.0 0.00 1.45 0.00 86 1012.4
20260507011602 7 0 0.0 4.8 0.00 1.45 0.00 86 1012.4
20260507011056 7 0 0.0 4.8 0.00 1.45 0.00 86 1012.3
20260507010556 7 256 1.6 4.8 0.00 1.45 0.00 86 1012.3
20260507010055 7 256 0.0 0.0 0.00 1.45 0.00 86 1012.3
20260507005556 7 0 0.0 0.0 0.00 1.57 0.00 86 1012.2
20260507005057 7 0 0.0 0.0 0.00 1.57 0.00 86 1012.2
20260507004558 7 0 0.0 0.0 0.00 1.57 0.00 86 1012.2
20260507004057 7 0 0.0 0.0 0.00 1.57 0.00 86 1012.2
20260507003557 7 0 0.0 0.0 0.00 1.57 0.00 86 1012.2
20260507003056 7 0 0.0 0.0 0.00 1.57 0.00 85 1012.0
20260507002556 8 0 0.0 0.0 0.00 1.57 0.00 85 1012.0
20260507002057 8 0 0.0 0.0 0.00 1.57 0.00 85 1012.0
20260507001605 8 0 0.0 0.0 0.00 1.57 0.00 85 1012.0
20260507001056 8 0 0.0 0.0 0.00 1.57 0.00 85 1011.9
20260507000600 8 0 0.0 0.0 0.00 1.57 0.00 85 1012.0
20260507000124 8 0 0.0 0.0 0.00 1.57 0.00 85 1011.8
20260506235557 8 0 0.0 0.0 0.00 1.57 0.00 85 1011.9